Radiation Dose at Monitoring Post of Fukushima Daini Nuclear Power Station
Date,Time,MP-1(microSv/h),MP-2(microSv/h),MP-3(microSv/h),MP-4(microSv/h),MP-5(microSv/h),MP-6(microSv/h),MP-7(microSv/h),Wind Direction,Wind Velocity(m/s),Rain
2021/09/07,00:00,0.152,0.139,0.217,0.212,0.222,0.118,0.075,north-northwest,7.6,Yes
2021/09/07,00:10,0.151,0.140,0.218,0.210,0.224,0.117,0.077,north-northwest,7.9,Yes
2021/09/07,00:20,0.151,0.141,0.217,0.212,0.223,0.118,0.076,north-northwest,7.5,Yes
2021/09/07,00:30,0.152,0.140,0.218,0.212,0.223,0.117,0.077,north-northwest,7.0,Yes
2021/09/07,00:40,0.151,0.140,0.217,0.213,0.222,0.117,0.077,north-northwest,5.3,Yes
2021/09/07,00:50,0.153,0.140,0.219,0.212,0.223,0.117,0.077,north-northwest,5.7,Yes
2021/09/07,01:00,0.152,0.141,0.217,0.213,0.221,0.117,0.077,north,4.7,Yes
2021/09/07,01:10,0.152,0.140,0.218,0.211,0.223,0.117,0.077,north,4.4,Yes
2021/09/07,01:20,0.152,0.141,0.217,0.213,0.223,0.117,0.077,north-northwest,4.5,Yes
2021/09/07,01:30,0.153,0.141,0.218,0.211,0.223,0.118,0.077,north-northwest,6.3,Yes
2021/09/07,01:40,0.152,0.140,0.218,0.212,0.222,0.118,0.077,northwest,6.3,Yes
2021/09/07,01:50,0.153,0.141,0.218,0.212,0.224,0.117,0.076,north-northwest,6.8,Yes
2021/09/07,02:00,0.152,0.140,0.218,0.211,0.223,0.117,0.077,north-northwest,7.9,Yes
2021/09/07,02:10,0.153,0.141,0.218,0.212,0.224,0.117,0.077,north-northwest,7.9,Yes
2021/09/07,02:20,0.151,0.139,0.219,0.210,0.222,0.117,0.076,northwest,9.0,No
2021/09/07,02:30,0.152,0.141,0.217,0.213,0.223,0.117,0.077,northwest,9.2,No
2021/09/07,02:40,0.151,0.139,0.219,0.212,0.222,0.116,0.076,northwest,9.3,No
2021/09/07,02:50,0.151,0.141,0.217,0.213,0.222,0.117,0.076,northwest,9.0,No
2021/09/07,03:00,0.151,0.139,0.218,0.211,0.222,0.116,0.076,north-northwest,9.0,No
2021/09/07,03:10,0.152,0.140,0.217,0.213,0.223,0.116,0.076,north-northwest,8.8,No
2021/09/07,03:20,0.151,0.140,0.217,0.212,0.222,0.116,0.076,north-northwest,9.1,No
2021/09/07,03:30,0.152,0.139,0.218,0.212,0.223,0.117,0.076,north-northwest,10.0,No
2021/09/07,03:40,0.151,0.139,0.218,0.212,0.222,0.116,0.076,north-northwest,9.4,No
2021/09/07,03:50,0.152,0.140,0.219,0.213,0.222,0.116,0.076,north-northwest,9.1,No
2021/09/07,04:00,0.152,0.140,0.217,0.213,0.222,0.117,0.076,north-northwest,9.3,No
2021/09/07,04:10,0.152,0.139,0.220,0.212,0.222,0.117,0.076,north-northwest,9.5,No
2021/09/07,04:20,0.151,0.140,0.218,0.213,0.223,0.116,0.076,north-northwest,9.5,No
2021/09/07,04:30,0.152,0.139,0.219,0.212,0.221,0.116,0.076,northwest,9.3,No
2021/09/07,04:40,0.152,0.139,0.219,0.213,0.223,0.117,0.077,north-northwest,9.1,No
2021/09/07,04:50,0.153,0.139,0.218,0.212,0.221,0.117,0.076,north-northwest,9.2,Yes
2021/09/07,05:00,0.152,0.141,0.219,0.213,0.224,0.116,0.076,north-northwest,9.4,No
2021/09/07,05:10,0.152,0.139,0.218,0.213,0.221,0.116,0.076,north-northwest,9.4,No
2021/09/07,05:20,0.152,0.140,0.218,0.213,0.224,0.117,0.075,north-northwest,8.9,No
2021/09/07,05:30,0.152,0.140,0.218,0.212,0.221,0.116,0.076,north-northwest,8.5,No
2021/09/07,05:40,0.153,0.141,0.219,0.212,0.222,0.116,0.076,north-northwest,8.8,No
2021/09/07,05:50,0.153,0.139,0.217,0.214,0.222,0.116,0.076,north-northwest,8.3,No
2021/09/07,06:00,0.153,0.140,0.220,0.213,0.225,0.116,0.076,north-northwest,8.7,No
2021/09/07,06:10,0.153,0.140,0.218,0.213,0.220,0.117,0.076,north-northwest,8.5,No
2021/09/07,06:20,0.152,0.139,0.220,0.214,0.223,0.117,0.076,north-northwest,7.9,No
2021/09/07,06:30,0.153,0.140,0.219,0.214,0.221,0.117,0.077,north-northwest,7.8,No
2021/09/07,06:40,0.153,0.139,0.220,0.213,0.224,0.117,0.076,north-northwest,7.8,No
2021/09/07,06:50,0.153,0.141,0.219,0.214,0.221,0.118,0.076,north-northwest,8.2,No
2021/09/07,07:00,0.153,0.140,0.219,0.213,0.225,0.117,0.076,north-northwest,7.9,No
2021/09/07,07:10,0.153,0.141,0.219,0.213,0.223,0.117,0.076,north-northwest,7.7,No
2021/09/07,07:20,0.153,0.139,0.220,0.213,0.222,0.116,0.076,north-northwest,6.8,No
2021/09/07,07:30,0.153,0.140,0.218,0.213,0.223,0.117,0.076,north-northwest,6.9,No
2021/09/07,07:40,0.153,0.139,0.221,0.214,0.222,0.117,0.077,north-northwest,7.1,No
2021/09/07,07:50,0.153,0.141,0.219,0.212,0.224,0.117,0.076,north-northwest,5.3,No
2021/09/07,08:00,0.152,0.141,0.219,0.215,0.222,0.117,0.075,north-northwest,6.5,No
2021/09/07,08:10,0.153,0.140,0.220,0.212,0.224,0.117,0.075,north-northwest,6.2,No
2021/09/07,08:20,0.152,0.140,0.217,0.211,0.220,0.117,0.076,north,7.3,No
2021/09/07,08:30,0.153,0.140,0.218,0.214,0.224,0.117,0.076,north-northwest,8.1,No
2021/09/07,08:40,0.154,0.141,0.220,0.213,0.223,0.118,0.076,north-northwest,6.3,No
2021/09/07,08:50,0.151,0.140,0.220,0.212,0.221,0.117,0.076,north-northwest,8.3,No
2021/09/07,09:00,0.154,0.142,0.217,0.214,0.224,0.117,0.076,north-northwest,7.5,No
2021/09/07,09:10,0.153,0.140,0.219,0.214,0.224,0.118,0.075,north-northwest,8.0,No
2021/09/07,09:20,0.151,0.140,0.221,0.213,0.221,0.117,0.076,north,7.6,No
2021/09/07,09:30,0.152,0.141,0.218,0.212,0.221,0.116,0.075,north,7.5,No
2021/09/07,09:40,0.151,0.140,0.217,0.213,0.223,0.118,0.075,east-southeast,4.8,No
2021/09/07,09:50,0.151,0.140,0.220,0.214,0.223,0.119,0.076,north,7.8,No
2021/09/07,10:00,0.151,0.140,0.221,0.216,0.222,0.118,0.076,north,6.1,No
2021/09/07,10:10,0.152,0.140,0.219,0.214,0.221,0.117,0.076,north,5.6,No
2021/09/07,10:20,0.151,0.140,0.218,0.212,0.223,0.118,0.075,north,7.3,No
2021/09/07,10:30,0.151,0.139,0.220,0.213,0.225,0.117,0.076,north,7.0,No
2021/09/07,10:40,0.152,0.142,0.222,0.213,0.224,0.118,0.075,north,6.6,No
2021/09/07,10:50,0.151,0.140,0.221,0.216,0.221,0.119,0.075,north,5.8,No
2021/09/07,11:00,0.152,0.140,0.219,0.216,0.221,0.118,0.076,north,6.0,No
2021/09/07,11:10,0.150,0.139,0.219,0.215,0.221,0.118,0.075,north,5.4,No
2021/09/07,11:20,0.152,0.141,0.220,0.213,0.222,0.118,0.075,north,5.4,No
2021/09/07,11:30,0.151,0.142,0.223,0.214,0.222,0.118,0.076,north,6.4,No
2021/09/07,11:40,0.151,0.141,0.222,0.213,0.222,0.118,0.077,north,6.3,No
2021/09/07,11:50,0.152,0.140,0.221,0.213,0.224,0.118,0.076,north-northeast,5.8,No
2021/09/07,12:00,0.152,0.141,0.220,0.213,0.226,0.118,0.076,north-northeast,6.4,No
2021/09/07,12:10,0.153,0.142,0.219,0.216,0.225,0.119,0.076,north-northeast,4.9,No
2021/09/07,12:20,0.150,0.141,0.222,0.217,0.223,0.119,0.076,north,5.7,No
2021/09/07,12:30,0.151,0.140,0.223,0.215,0.223,0.120,0.076,north,5.5,No
2021/09/07,12:40,0.154,0.140,0.222,0.214,0.222,0.119,0.076,north,4.8,No
2021/09/07,12:50,0.151,0.141,0.220,0.214,0.221,0.120,0.077,north-northeast,6.1,No
2021/09/07,13:00,0.151,0.142,0.219,0.214,0.225,0.119,0.077,north,4.7,No
2021/09/07,13:10,0.152,0.141,0.223,0.213,0.227,0.118,0.076,north,5.5,No
2021/09/07,13:20,0.153,0.140,0.223,0.216,0.226,0.119,0.076,north-northeast,5.0,No
2021/09/07,13:30,0.153,0.141,0.222,0.217,0.224,0.118,0.077,north,5.2,No
2021/09/07,13:40,0.151,0.141,0.220,0.216,0.221,0.118,0.076,north,4.4,No
2021/09/07,13:50,0.151,0.141,0.219,0.214,0.223,0.118,0.077,north-northeast,4.3,No
2021/09/07,14:00,0.154,0.140,0.223,0.214,0.222,0.119,0.076,north-northeast,5.2,No
2021/09/07,14:10,0.153,0.141,0.223,0.216,0.222,0.119,0.076,north-northeast,5.4,No
2021/09/07,14:20,0.152,0.139,0.223,0.217,0.223,0.119,0.075,north-northeast,5.9,No
2021/09/07,14:30,0.151,0.142,0.221,0.216,0.223,0.119,0.076,north-northeast,5.5,No
2021/09/07,14:40,0.152,0.143,0.220,0.216,0.222,0.119,0.076,north-northeast,5.6,No
2021/09/07,14:50,0.154,0.142,0.223,0.214,0.222,0.119,0.076,north-northeast,4.4,No
2021/09/07,15:00,0.153,0.140,0.223,0.214,0.223,0.120,0.076,north-northeast,6.5,No
2021/09/07,15:10,0.152,0.141,0.222,0.217,0.223,0.119,0.077,north-northeast,5.2,No
2021/09/07,15:20,0.152,0.142,0.225,0.216,0.222,0.119,0.077,north-northeast,6.4,No
2021/09/07,15:30,0.154,0.142,0.223,0.216,0.223,0.119,0.078,northeast,5.0,No
2021/09/07,15:40,0.152,0.142,0.223,0.219,0.224,0.119,0.077,northeast,5.4,No
2021/09/07,15:50,0.152,0.142,0.224,0.216,0.225,0.120,0.076,northeast,4.9,No
2021/09/07,16:00,0.154,0.141,0.223,0.217,0.228,0.120,0.076,northeast,5.0,No
2021/09/07,16:10,0.154,0.142,0.225,0.217,0.225,0.120,0.077,northeast,5.0,No
2021/09/07,16:20,0.154,0.142,0.223,0.217,0.224,0.120,0.077,north-northeast,4.8,No
2021/09/07,16:30,0.156,0.142,0.223,0.218,0.223,0.120,0.077,north-northeast,4.7,No
2021/09/07,16:40,0.154,0.142,0.225,0.217,0.227,0.119,0.077,north-northeast,5.2,No
2021/09/07,16:50,0.156,0.141,0.222,0.217,0.226,0.120,0.076,north-northeast,5.1,No
2021/09/07,17:00,0.155,0.143,0.224,0.218,0.224,0.120,0.077,north-northeast,3.6,No
2021/09/07,17:10,0.155,0.142,0.222,0.217,0.224,0.119,0.077,north-northeast,4.5,No
2021/09/07,17:20,0.155,0.142,0.226,0.218,0.228,0.120,0.077,northeast,4.3,No
2021/09/07,17:30,0.154,0.142,0.223,0.217,0.225,0.120,0.077,north-northeast,3.9,No
2021/09/07,17:40,0.156,0.141,0.224,0.217,0.227,0.120,0.077,north-northeast,3.8,No
2021/09/07,17:50,0.154,0.142,0.223,0.216,0.226,0.119,0.077,north-northeast,4.5,No
2021/09/07,18:00,0.155,0.143,0.225,0.218,0.226,0.120,0.076,north,3.0,No
2021/09/07,18:10,0.154,0.143,0.223,0.217,0.227,0.121,0.077,north-northeast,3.8,No
2021/09/07,18:20,0.155,0.142,0.224,0.218,0.225,0.120,0.076,north-northeast,2.8,Yes
2021/09/07,18:30,0.155,0.143,0.224,0.216,0.227,0.121,0.077,north-northeast,2.6,No
2021/09/07,18:40,0.154,0.141,0.225,0.219,0.225,0.120,0.076,north,1.9,No
2021/09/07,18:50,0.155,0.143,0.223,0.217,0.227,0.119,0.078,north-northwest,2.4,No
2021/09/07,19:00,0.155,0.141,0.223,0.217,0.225,0.120,0.077,north-northwest,2.2,No
2021/09/07,19:10,0.155,0.143,0.225,0.217,0.226,0.118,0.077,northwest,3.0,No
2021/09/07,19:20,0.156,0.142,0.224,0.217,0.225,0.120,0.077,north-northwest,2.4,No
2021/09/07,19:30,0.155,0.142,0.224,0.217,0.224,0.120,0.077,north,3.0,No
2021/09/07,19:40,0.155,0.142,0.223,0.217,0.228,0.121,0.077,north-northwest,2.9,No
2021/09/07,19:50,0.155,0.142,0.225,0.218,0.225,0.120,0.077,north,2.3,No
2021/09/07,20:00,0.156,0.141,0.225,0.217,0.227,0.120,0.077,north-northwest,2.6,No
2021/09/07,20:10,0.155,0.142,0.224,0.217,0.224,0.120,0.077,north,1.9,No
2021/09/07,20:20,0.156,0.142,0.225,0.218,0.227,0.120,0.077,north-northwest,1.7,No
2021/09/07,20:30,0.155,0.143,0.223,0.218,0.226,0.119,0.077,north,2.1,No
2021/09/07,20:40,0.155,0.142,0.225,0.219,0.226,0.120,0.077,north-northwest,2.0,No
2021/09/07,20:50,0.155,0.141,0.224,0.217,0.225,0.119,0.077,north-northwest,2.1,No
2021/09/07,21:00,0.156,0.142,0.225,0.218,0.226,0.120,0.078,north-northwest,2.5,No
2021/09/07,21:10,0.155,0.142,0.223,0.217,0.226,0.119,0.077,north-northwest,1.8,No
2021/09/07,21:20,0.156,0.142,0.225,0.219,0.226,0.119,0.076,north-northwest,1.9,No
2021/09/07,21:30,0.155,0.142,0.223,0.218,0.225,0.119,0.077,north,1.8,No
2021/09/07,21:40,0.156,0.142,0.224,0.218,0.227,0.120,0.076,north-northwest,1.4,No
2021/09/07,21:50,0.155,0.143,0.224,0.218,0.223,0.120,0.077,north-northwest,1.5,No
2021/09/07,22:00,0.155,0.142,0.223,0.217,0.226,0.120,0.078,north-northwest,1.3,No
2021/09/07,22:10,0.156,0.142,0.225,0.218,0.225,0.121,0.078,northwest,1.1,No
2021/09/07,22:20,0.155,0.142,0.224,0.217,0.227,0.120,0.077,northwest,0.8,No
2021/09/07,22:30,0.155,0.143,0.224,0.218,0.225,0.120,0.077,north,0.9,No
2021/09/07,22:40,0.156,0.142,0.223,0.218,0.226,0.120,0.077,north,0.9,No
2021/09/07,22:50,0.155,0.142,0.226,0.218,0.226,0.120,0.078,north-northwest,1.0,No
2021/09/07,23:00,0.156,0.142,0.223,0.217,0.227,0.121,0.077,north,1.2,No
2021/09/07,23:10,0.156,0.142,0.224,0.218,0.225,0.120,0.078,north-northwest,1.4,No
2021/09/07,23:20,0.155,0.141,0.224,0.217,0.227,0.120,0.076,northwest,1.3,No
2021/09/07,23:30,0.155,0.142,0.225,0.218,0.225,0.121,0.077,northwest,0.9,No
2021/09/07,23:40,0.155,0.142,0.225,0.217,0.227,0.120,0.077,west-northwest,0.7,No
2021/09/07,23:50,0.156,0.142,0.223,0.217,0.225,0.121,0.077,-,CALM,No
